Jackson, WY

11:46 PM MST on December 05, 2019 (GMT -0700)
Jackson Hole

Weather History for KJAC - October, 2019

Change the Weather History Date:

Thursday, October 24, 2019

  Actual Average Record
Temperature  
Mean Temperature 27 °F -  
Max Temperature 43 °F 49 °F 67 °F (1959)
Min Temperature 12 °F 21 °F 7 °F (1975)
Degree Days  
Heating Degree Days 38    
Moisture  
Dew Point 16 °F    
Average Humidity 70    
Maximum Humidity 92    
Minimum Humidity 34    
Precipitation  
Precipitation 0.00 in - - ()
Sea Level Pressure  
Sea Level Pressure 30.46 in    
Wind  
Wind Speed 3 mph ()    
Max Wind Speed 9 mph    
Max Gust Speed -    
Visibility 10.0 miles    
Events      
Averages and records for this station are not official NWS values.
T = Trace of Precipitation, MM = Missing Value Source: Averaged Metar Reports

Daily Weather History Graph

Daily Weather History Graph

Search for Another Location

Airport or City:

Astronomy

Oct. 24, 2019 Rise Set
Actual Time 7:48 AM MDT 6:25 PM MDT
Civil Twilight 7:18 AM MDT 6:54 PM MDT
Nautical Twilight 6:45 AM MDT 7:28 PM MDT
Astronomical Twilight 6:12 AM MDT 8:01 PM MDT
Moon 3:11 AM MDT (10/24) 5:04 PM MDT (10/24)
Length of Visible Light 11h 35m
Length of Day
10h 37m
Waning Crescent, 16% of the Moon is Illuminated
Oct 24
Waning Crescent
Oct 27
New
Nov 4
First Quarter
Nov 12
Full
Nov 19
Last Quarter

Hourly Weather History & Observations

Time (MDT) Temp. Windchill Dew Point Humidity Pressure Visibility Wind Dir Wind Speed Gust Speed Precip Events Conditions
12:56 AM 21.9 °F 17.2 °F 18.0 °F 85% 30.52 in 10.0 mi ENE 3.5 mph - N/A   Clear
2:56 AM 17.1 °F 10.0 °F 15.1 °F 92% 30.54 in 10.0 mi NE 4.6 mph - N/A   Clear
3:56 AM 15.1 °F 7.7 °F 12.0 °F 88% 30.56 in 10.0 mi NNE 4.6 mph - N/A   Clear
4:56 AM 15.1 °F 9.4 °F 12.0 °F 88% 30.57 in 10.0 mi NE 3.5 mph - N/A   Clear
5:56 AM 12.9 °F 5.2 °F 10.9 °F 92% 30.61 in 10.0 mi ENE 4.6 mph - N/A   Clear
6:48 AM 14.0 °F 8.2 °F 10.4 °F 86% 30.41 in 10.0 mi ENE 3.5 mph - N/A   Mostly Cloudy
6:56 AM 14.0 °F - 10.9 °F 88% 30.61 in 10.0 mi Calm Calm - N/A   Scattered Clouds
7:56 AM 14.0 °F 6.5 °F 10.9 °F 88% 30.63 in 10.0 mi East 4.6 mph - N/A   Scattered Clouds
8:35 AM 17.6 °F 12.3 °F 14.0 °F 86% 30.42 in 10.0 mi NNW 3.5 mph - N/A   Mostly Cloudy
8:56 AM 19.0 °F - 16.0 °F 88% 30.61 in 10.0 mi Calm Calm - N/A   Mostly Cloudy
9:32 AM 24.8 °F 20.5 °F 19.4 °F 80% 30.44 in 10.0 mi North 3.5 mph - N/A   Mostly Cloudy
9:56 AM 21.2 °F - 14.0 °F 74% 30.46 in 10.0 mi Calm Calm - N/A   Mostly Cloudy
10:56 AM 24.8 °F - 15.8 °F 69% 30.45 in 10.0 mi Calm Calm - N/A   Scattered Clouds
11:56 AM 26.6 °F - 15.8 °F 64% 30.43 in 10.0 mi Calm Calm - N/A   Mostly Cloudy
12:56 PM 32.0 °F 25.6 °F 19.9 °F 61% 30.40 in 10.0 mi WSW 6.9 mph - N/A   Partly Cloudy
1:56 PM 34.0 °F - 19.0 °F 54% 30.38 in 10.0 mi Calm Calm - N/A   Mostly Cloudy
2:56 PM 39.9 °F - 17.1 °F 40% 30.35 in 10.0 mi Calm Calm - N/A   Clear
3:56 PM 42.1 °F - 15.1 °F 34% 30.35 in 10.0 mi Calm Calm - N/A   Clear
4:09 PM 42.8 °F - 15.8 °F 34% 30.35 in 10.0 mi Calm Calm - N/A   Clear
4:56 PM 41.0 °F 35.2 °F 17.1 °F 38% 30.36 in 10.0 mi North 9.2 mph - N/A   Clear
5:56 PM 36.0 °F 31.1 °F 19.0 °F 50% 30.37 in 10.0 mi North 5.8 mph - N/A   Partly Cloudy
6:56 PM 32.0 °F 24.2 °F 19.0 °F 59% 30.40 in 10.0 mi NNE 9.2 mph - N/A   Clear
7:56 PM 32.0 °F 26.4 °F 18.0 °F 56% 30.42 in 10.0 mi East 5.8 mph - N/A   Clear
8:56 PM 30.9 °F 25.2 °F 19.0 °F 61% 30.42 in 10.0 mi East 5.8 mph - N/A   Clear
9:56 PM 26.1 °F 21.9 °F 19.9 °F 78% 30.43 in 10.0 mi NNW 3.5 mph - N/A   Clear
10:56 PM 25.0 °F 19.3 °F 19.9 °F 81% 30.44 in 10.0 mi NNE 4.6 mph - N/A   Clear
11:56 PM 23.0 °F 18.4 °F 19.0 °F 85% 30.60 in 10.0 mi NE 3.5 mph - N/A   Clear